Dewpoint
34 35 35 35 35 34 35 35 36 37 39 44 51 59 59 56 53 53 54 55 56 56 56 57 57 58 58 57 56 55 54 53 53 52 52 52 52 52 52 51 50 50 49 48 48 49 49 49 49 49 49 49 49 49 49 48 48 48 49 50 50 50 49 49 48 48 48 48 49 50 49 48 47 45 45 45 45 45 47 47 47 47 47 46 45 45 45 45 45 46 45 45 45 47 46 44 43 43 44 44 43 44 43
35 35 35 35 35 35 35 35 36 37 38 42 48 60 60 58 56 53 53 54 55 55 56 56 57 57 57 56 55 53 52 52 52 52 51 51 51 51 51 50 50 48 48 47 47 48 48 47 47 47 47 47 47 47 47 47 47 47 47 48 48 50 50 49 49 49 47 47 48 49 48 47 47 46 45 44 44 45 46 47 47 47 46 45 44 46 47 47 47 47 46 46 46 47 46 45 42 40 39 38 39 39 41
34 34 35 35 35 35 36 36 36 35 37 40 45 55 61 61 59 54 53 53 54 54 55 56 56 57 56 56 54 52 52 51 51 51 51 50 50 50 49 49 48 47 47 47 47 46 46 46 45 45 46 46 46 46 47 47 47 47 47 47 48 49 49 49 49 48 47 47 47 48 47 46 46 45 44 43 43 44 45 46 47 48 47 46 46 48 49 48 47 46 45 45 46 47 46 44 43 40 38 38 38 38 40
33 34 34 34 35 36 36 36 37 38 38 38 41 49 58 61 59 52 52 52 53 54 55 55 56 56 56 55 54 52 52 51 51 51 50 50 50 49 49 48 47 47 46 46 45 45 44 43 43 43 44 45 45 45 46 47 47 47 47 47 48 48 48 48 47 47 46 46 46 47 46 45 44 43 43 43 43 44 45 46 47 47 47 47 47 47 47 47 46 44 44 45 47 47 44 43 43 43 40 39 39 40 41
32 33 33 34 35 36 36 36 37 38 38 38 40 45 52 56 55 52 52 52 52 53 54 55 55 56 55 54 52 52 51 51 50 50 50 50 49 49 48 48 47 46 45 44 44 45 44 43 43 43 44 45 46 47 47 47 47 47 47 47 47 47 48 47 46 46 46 46 47 47 46 44 43 43 43 43 44 46 46 46 45 46 46 47 47 47 47 47 47 47 45 46 47 47 43 42 41 42 42 42 41 40 41
31 31 33 34 34 35 35 35 36 37 37 38 39 43 49 51 51 52 51 51 52 52 53 54 54 54 54 52 51 51 51 51 50 50 50 49 49 48 48 47 47 45 44 44 43 43 43 43 44 44 44 45 45 46 46 46 46 46 47 47 47 47 47 47 45 45 46 46 47 47 46 44 43 44 43 43 44 45 45 45 45 44 44 45 45 45 46 47 46 46 46 46 46 46 44 42 41 41 42 41 40 40 40
30 31 31 33 34 34 35 35 34 35 34 35 38 43 48 51 51 51 51 51 51 52 53 53 53 53 52 51 50 50 51 51 50 50 50 50 49 48 48 47 45 44 44 43 43 41 42 43 43 45 45 45 45 44 45 45 45 45 46 46 47 47 47 46 45 45 46 46 46 46 45 44 43 43 43 43 43 43 43 43 44 44 43 43 42 42 42 42 43 43 44 44 44 44 44 43 42 41 40 38 38 39 41
29 30 31 31 32 34 35 35 35 34 34 34 37 40 47 50 51 50 50 50 50 51 52 52 52 52 52 51 49 49 50 49 49 49 49 49 48 48 46 44 43 44 43 43 43 43 43 43 44 45 44 44 43 43 44 45 45 45 45 46 47 47 47 46 46 45 45 44 44 44 43 42 43 43 43 43 42 42 41 42 44 46 44 43 42 41 39 38 39 40 40 41 43 43 43 43 43 41 39 37 37 37 38
29 30 30 30 31 33 35 36 37 35 33 34 35 38 43 47 49 49 49 49 50 50 51 51 51 52 51 50 49 48 48 49 49 49 48 47 47 45 44 43 42 42 42 42 42 43 43 43 43 43 43 43 43 44 44 45 45 45 45 45 45 46 47 47 46 44 43 43 43 43 43 43 43 44 43 43 42 42 43 43 43 44 43 42 40 39 39 39 40 38 39 41 41 41 42 42 41 39 38 36 35 35 37
30 30 30 30 31 32 34 36 36 36 33 34 35 36 41 45 47 49 49 49 49 50 50 50 50 50 49 48 48 48 48 48 48 48 47 46 45 43 42 41 41 40 40 40 41 41 41 42 42 41 41 41 42 43 43 43 43 44 44 44 45 45 46 46 46 45 44 43 43 44 43 42 43 45 44 43 43 43 43 43 43 43 43 41 40 39 40 42 42 41 40 40 40 41 40 40 40 39 38 37 36 35 35
30 30 30 30 30 31 33 34 35 35 34 34 35 36 38 43 47 48 49 49 49 49 49 49 49 49 48 47 47 47 47 47 47 47 46 45 44 43 41 40 40 39 39 39 39 39 40 40 40 40 40 41 41 42 42 43 43 44 44 44 45 45 44 45 45 45 45 44 44 43 43 42 43 44 45 44 43 43 43 43 43 42 43 42 41 39 40 40 40 40 39 39 39 39 40 40 39 40 40 39 38 37 35
29 29 30 30 30 30 31 33 34 35 35 35 35 36 37 44 51 54 54 51 48 48 48 48 48 48 47 47 47 47 47 47 47 46 45 44 43 42 41 40 40 39 39 39 39 38 38 38 39 39 40 41 41 41 42 43 43 44 44 45 45 45 44 44 44 45 45 45 44 43 42 43 43 42 43 43 43 42 42 42 42 43 43 43 41 40 38 38 38 38 38 38 39 40 41 41 40 41 41 41 39 37 35
28 29 29 30 30 29 30 31 33 35 35 35 35 35 37 43 50 54 54 51 48 48 48 48 48 47 47 47 46 46 46 46 46 45 43 43 42 41 41 40 40 40 40 39 38 38 37 37 38 39 40 41 41 41 42 43 43 44 44 45 45 45 44 43 43 44 44 44 44 43 43 42 42 41 41 42 43 43 42 41 42 43 43 42 40 40 38 38 39 38 35 38 41 43 42 42 42 42 41 40 39 37 35
28 28 29 29 30 30 30 31 32 34 35 36 36 35 35 39 46 52 52 52 49 47 47 47 47 47 47 47 46 45 45 45 45 44 43 43 42 41 40 40 39 39 40 39 38 37 36 36 37 39 40 41 42 41 43 43 43 44 44 44 44 44 44 43 43 43 44 45 44 43 42 42 42 41 41 42 43 43 43 42 42 43 43 42 40 40 38 38 39 38 38 40 42 42 43 43 43 43 41 40 39 38 36
28 28 29 29 30 30 30 31 31 33 35 36 35 34 33 36 42 50 52 52 50 47 47 47 47 47 46 46 45 45 45 45 44 43 43 43 42 41 40 39 39 39 38 38 37 37 37 37 38 40 42 42 42 41 42 43 43 43 43 43 44 44 44 44 44 43 44 45 45 44 42 42 43 42 40 39 39 41 41 41 41 42 43 41 40 39 39 38 38 37 38 40 41 41 42 43 43 42 41 41 41 40 38
28 28 29 29 29 30 30 31 32 33 35 35 34 34 33 35 40 49 52 52 50 47 47 47 47 46 46 45 44 44 44 44 44 42 42 42 42 42 40 40 39 38 38 37 37 38 39 40 41 41 42 42 42 41 42 42 42 43 43 43 43 44 44 44 44 44 44 44 44 45 42 41 41 41 39 38 37 37 38 38 39 41 42 41 40 39 38 38 38 38 38 39 39 40 40 41 41 41 41 41 42 41 39
29 29 29 29 29 30 31 31 32 33 35 36 35 34 34 34 37 46 50 51 49 47 46 46 46 45 45 44 44 43 43 43 43 41 42 42 41 41 40 40 39 38 37 37 37 38 38 40 41 41 41 41 41 41 42 42 42 42 43 43 43 43 44 44 44 44 44 44 44 44 41 41 41 41 39 38 37 36 36 37 39 42 42 41 39 38 38 38 39 39 40 40 40 40 40 39 40 40 40 40 41 40 39
29 29 30 30 30 30 31 31 32 32 34 36 37 37 34 34 36 44 49 50 49 47 46 46 45 45 44 44 43 43 43 42 42 41 41 41 41 41 40 40 39 38 38 37 37 38 38 39 40 41 41 41 41 41 41 41 42 42 42 43 43 43 43 43 43 44 44 43 43 43 41 41 42 41 39 39 38 37 37 38 39 42 42 40 39 38 39 39 40 40 40 40 40 40 39 39 39 39 39 39 40 40 38
29 29 30 31 32 31 31 31 31 32 33 35 37 38 36 34 35 42 48 50 50 49 46 45 45 44 44 43 43 42 42 42 42 41 41 41 41 41 41 40 39 38 38 38 38 38 39 40 40 40 40 40 40 40 41 41 41 41 42 42 42 43 43 43 43 43 43 43 43 43 40 41 41 40 39 39 39 38 38 38 38 39 39 39 39 39 40 40 39 39 39 40 40 40 39 39 39 39 39 40 39 39 38
28 29 29 32 34 35 34 32 31 32 32 33 36 40 39 36 35 42 47 50 50 48 46 44 44 44 43 43 43 42 42 42 41 41 41 41 41 41 41 40 39 39 38 38 38 39 40 40 40 40 40 40 40 40 40 40 40 40 41 41 41 42 42 42 42 43 43 43 43 42 41 41 40 39 40 39 38 38 38 38 38 39 38 39 39 39 39 39 39 39 39 40 40 40 39 39 39 39 39 39 39 38 38
27 27 28 29 33 38 39 38 34 31 31 32 34 38 40 38 37 42 47 51 52 48 45 44 44 43 43 42 42 41 41 41 41 41 41 41 41 41 40 39 39 38 38 39 40 41 41 41 40 41 41 41 40 40 40 40 40 40 40 40 40 40 40 40 41 41 41 41 41 41 41 41 40 39 40 40 39 38 39 39 39 38 38 38 38 39 39 39 39 39 40 40 40 40 39 39 39 39 39 38 38 38 38
27 27 27 27 29 35 40 41 38 32 33 32 33 35 39 40 40 42 47 52 52 47 45 44 43 42 42 42 41 40 40 40 40 41 41 41 41 40 40 39 39 39 40 40 41 41 41 41 42 45 43 42 41 40 40 40 40 40 39 39 39 39 39 38 38 38 38 39 39 39 40 40 39 38 39 39 39 38 38 39 38 37 38 38 38 39 39 39 40 41 41 41 40 40 39 39 39 38 38 38 38 38 38
31 33 32 31 31 33 38 40 40 36 34 33 33 35 39 41 42 42 48 51 50 46 44 43 43 42 41 41 40 39 39 39 40 41 40 40 40 40 40 40 40 41 41 41 41 42 42 42 44 47 43 42 41 40 40 40 40 39 39 39 38 38 38 37 37 37 37 37 37 38 38 38 38 37 38 37 37 37 37 37 37 36 37 38 40 40 41 41 40 40 41 40 40 39 39 38 38 38 38 38 38 38 38
34 37 38 38 38 38 39 41 41 38 34 33 34 37 41 43 43 44 50 52 50 46 44 43 42 41 40 40 39 38 38 39 40 40 40 40 40 40 40 41 42 42 42 42 42 42 42 43 44 44 42 41 41 40 40 40 40 39 39 38 38 38 38 37 36 36 36 36 37 37 37 37 37 37 37 37 37 37 37 37 37 37 37 39 41 41 41 40 40 39 39 39 39 39 38 38 38 38 38 38 38 38 38
36 38 39 40 41 41 41 42 42 42 39 36 36 41 43 45 46 47 52 53 51 45 43 42 41 40 39 39 38 38 38 39 40 40 39 39 40 40 41 43 43 43 43 43 43 43 42 43 43 42 42 41 41 40 40 40 39 38 38 38 38 38 37 37 36 36 36 36 36 36 38 38 38 37 38 38 37 37 37 37 38 38 38 39 40 39 40 40 40 39 39 39 40 39 39 39 39 39 39 39 39 39 38
37 38 38 38 39 40 41 42 43 44 43 41 40 41 45 46 46 49 53 53 50 44 43 42 40 39 39 38 38 38 38 38 39 39 39 39 40 41 43 44 44 43 42 42 43 42 42 42 42 42 42 42 42 41 39 39 38 38 37 37 37 36 36 35 35 35 35 36 36 37 38 38 38 37 37 37 37 36 37 37 38 38 39 39 39 40 40 40 41 40 40 40 40 40 40 40 40 39 39 39 39 39 39
35 37 37 37 38 38 41 43 44 45 44 44 44 44 47 47 47 51 53 52 48 44 43 41 40 38 38 38 38 37 38 38 38 39 39 40 41 42 43 44 43 42 42 42 42 41 43 45 47 48 47 44 41 40 39 38 38 37 36 35 35 34 35 35 34 34 34 35 36 37 37 37 37 36 37 38 38 38 38 38 38 39 39 40 40 40 40 41 41 40 40 40 40 39 39 39 38 38 38 38 38 38 38
34 36 37 38 38 39 41 43 44 45 45 47 49 50 49 48 48 52 52 50 46 43 42 41 39 38 38 37 37 37 37 38 38 39 41 42 43 43 43 43 43 42 42 42 43 44 46 47 47 45 42 40 38 38 38 37 36 35 34 34 34 34 34 34 34 34 34 36 37 38 38 37 37 38 38 38 39 40 39 39 39 39 39 39 39 40 40 40 40 39 39 39 38 38 38 38 38 38 37 37 37 37 37
33 36 37 38 39 41 43 44 45 46 45 45 47 52 50 48 47 50 49 47 44 42 42 40 38 37 37 37 37 37 37 38 38 40 42 43 44 44 43 43 43 42 42 42 43 44 44 43 41 40 38 37 36 36 36 36 35 34 34 34 34 34 34 35 35 35 35 36 37 38 38 38 38 37 38 38 39 39 40 40 39 38 39 39 39 39 39 39 39 39 39 39 38 38 38 37 37 37 37 37 37 37 37
32 37 38 39 40 42 44 45 47 47 46 45 46 48 49 47 47 48 48 46 43 42 41 40 38 36 36 37 37 36 37 38 39 41 43 43 43 43 43 42 42 42 42 42 42 41 40 39 38 37 36 36 35 36 35 35 35 35 34 34 35 35 36 37 38 38 36 36 37 38 38 38 38 37 36 37 38 38 39 39 39 39 38 38 39 39 39 39 39 39 39 39 38 38 37 37 37 37 36 36 36 36 36
33 38 39 40 41 43 45 47 47 48 47 47 46 47 47 47 47 48 47 44 42 41 40 38 37 36 36 36 36 36 37 38 40 42 43 43 43 42 42 41 41 41 41 40 40 39 39 38 37 37 36 35 35 35 34 34 34 34 34 35 35 37 37 38 38 37 36 36 36 38 37 37 38 38 38 38 38 38 38 39 39 39 38 38 38 38 38 39 39 38 39 38 38 37 36 36 36 36 36 36 36 36 36
34 38 40 41 42 43 45 48 51 51 50 48 47 47 48 50 50 47 45 42 40 40 39 38 36 35 36 35 35 36 38 39 41 41 42 42 42 42 41 41 41 40 40 39 39 39 38 38 37 36 36 35 35 34 34 34 35 35 36 36 37 37 37 37 36 36 36 36 37 37 37 38 38 38 38 38 38 38 38 38 38 38 38 38 38 38 38 38 38 38 38 38 37 36 36 36 36 36 36 36 36 36 36
38 42 45 45 43 43 45 48 50 50 50 49 48 47 48 49 48 46 43 40 39 40 38 36 35 35 35 35 37 39 40 41 41 40 40 40 40 41 41 40 40 39 39 38 38 38 38 37 36 36 35 34 34 34 35 35 36 36 37 37 37 37 37 37 37 38 38 38 39 39 39 38 38 38 38 38 38 38 38 38 38 37 37 37 37 37 37 37 37 37 37 37 37 37 36 36 35 35 36 36 36 36 36
45 48 48 46 44 44 45 46 47 48 48 48 47 47 47 47 46 44 41 39 38 38 37 35 34 35 36 38 41 42 42 41 40 40 39 39 39 40 39 39 38 38 38 38 38 38 38 38 37 37 36 36 36 36 37 37 37 38 38 38 38 38 38 38 39 39 40 40 40 40 39 38 38 38 38 38 38 38 37 37 37 37 36 36 36 36 36 36 36 36 36 36 36 35 35 35 35 35 34 34 34 35 35
52 54 52 48 46 45 45 46 47 47 47 47 47 46 46 44 43 41 40 39 38 38 36 35 35 36 38 41 44 45 43 42 41 41 40 39 39 39 38 38 38 38 38 38 38 38 38 38 38 38 37 37 37 37 37 38 38 38 38 38 39 39 39 40 41 42 41 41 40 39 38 38 38 38 37 37 37 37 37 37 36 36 36 36 35 35 35 35 35 35 35 34 34 34 34 34 34 34 34 34 34 34 34
56 56 55 51 47 46 46 47 48 48 47 46 46 46 44 42 40 40 39 39 39 38 37 37 37 38 40 42 43 43 43 42 42 42 41 40 39 38 38 38 38 38 38 38 38 38 38 38 38 37 37 37 37 38 38 39 39 39 39 40 40 40 41 42 42 42 41 40 38 38 38 37 37 37 37 36 36 36 36 36 36 35 35 35 34 35 35 34 34 34 34 34 34 34 34 34 34 34 34 33 33 34 34
54 56 55 53 52 51 48 48 48 47 45 44 43 42 40 39 38 39 39 39 38 37 38 38 39 39 40 41 42 43 43 42 42 41 41 40 38 38 38 38 38 38 38 38 38 38 38 38 38 38 38 38 38 39 39 40 40 41 41 41 41 42 43 43 42 41 39 38 37 37 36 36 36 36 36 35 35 35 35 34 34 34 34 34 33 34 34 34 34 34 33 34 34 35 34 34 34 34 33 33 33 33 33
51 53 54 54 52 49 47 46 46 46 44 42 40 38 38 38 38 40 40 39 38 38 38 39 39 39 39 40 42 42 42 41 40 39 40 40 39 39 39 39 39 38 38 38 38 38 39 39 39 39 39 39 39 40 40 40 41 42 42 42 43 43 42 41 40 38 37 37 36 36 36 36 35 35 34 34 34 34 34 33 33 32 33 33 33 33 33 33 33 33 33 34 34 34 34 33 33 33 32 32 32 32 32
50 50 51 51 49 46 43 43 44 46 44 41 38 37 37 38 40 43 41 39 38 39 40 40 39 38 39 39 40 42 41 39 38 38 39 40 41 41 41 41 40 39 39 39 39 39 39 40 40 40 40 40 40 40 40 41 42 42 42 43 43 42 41 39 38 36 36 35 35 34 34 34 34 34 34 33 33 33 33 32 32 32 32 32 32 33 32 32 32 32 33 33 33 33 32 32 32 32 32 32 32 32 32
49 48 48 47 44 41 40 41 41 42 40 38 37 37 38 39 41 43 41 41 41 42 41 39 38 38 38 38 39 40 39 38 38 38 39 40 42 42 42 41 42 41 41 40 40 40 40 40 40 40 40 40 40 40 40 41 41 41 42 42 41 40 38 37 36 35 35 34 34 34 34 34 33 33 33 33 33 32 32 32 32 32 32 32 32 32 32 32 32 33 33 32 32 32 32 32 33 33 33 33 33 33 33
48 47 46 43 41 39 41 42 42 39 38 37 37 38 38 40 41 43 42 42 42 42 41 39 38 37 38 38 38 38 38 37 38 38 39 40 42 42 41 41 41 42 41 41 40 40 40 40 40 40 40 40 40 40 40 40 40 40 41 40 39 38 37 36 35 34 34 34 34 34 33 33 33 34 34 34 34 33 33 33 32 32 32 32 32 32 32 32 33 33 33 33 33 33 33 34 34 34 35 35 34 34 34
47 46 45 43 42 42 42 42 40 39 38 38 39 41 41 41 42 43 42 42 42 41 41 39 38 37 37 37 37 38 37 38 38 39 39 40 41 42 41 40 40 40 40 40 40 40 40 40 40 40 40 40 40 40 40 40 40 40 39 39 38 36 36 35 34 34 34 34 34 34 34 33 34 35 35 34 34 34 34 33 33 32 33 32 32 32 32 32 33 33 33 34 34 35 35 35 35 36 36 36 36 36 36
45 45 45 44 43 42 40 39 38 38 39 40 41 42 42 42 42 42 42 42 42 41 41 39 38 36 37 37 37 38 38 38 39 39 39 40 40 40 41 40 40 39 39 39 39 39 39 40 40 40 40 39 39 39 39 39 39 39 38 38 37 36 35 34 34 33 33 34 34 35 34 34 34 35 35 35 35 35 34 33 32 32 33 33 32 32 31 31 32 32 32 33 34 35 36 36 36 35 36 36 36 36 36
44 44 45 44 43 42 40 39 38 38 39 41 42 42 42 42 42 42 42 42 41 41 40 39 38 37 37 38 38 39 39 39 39 39 39 39 39 39 39 39 39 39 38 38 39 38 38 38 38 39 39 39 39 39 39 39 39 38 38 37 36 36 35 34 34 33 33 34 34 35 34 34 35 35 35 35 35 35 34 33 33 32 33 33 32 32 32 32 31 32 32 33 34 36 36 36 36 36 36 36 36 36 36
43 43 44 44 43 43 41 39 38 39 39 40 41 41 42 42 42 41 41 41 41 41 40 39 38 37 38 38 39 39 39 39 39 39 38 38 38 38 38 38 38 38 38 38 38 38 38 38 38 38 38 38 38 38 38 38 38 38 38 37 37 36 34 34 34 34 34 34 35 35 35 35 35 35 35 35 34 34 34 34 34 33 33 33 32 32 32 32 33 34 34 34 35 36 36 36 36 36 36 36 36 35 35
42 42 43 43 43 43 42 40 38 38 39 40 41 41 42 42 41 41 41 41 41 41 41 40 39 38 39 40 40 39 39 38 38 38 38 37 37 37 37 37 37 37 38 38 38 38 38 38 38 38 38 38 38 38 38 38 38 38 38 37 36 36 34 34 34 34 34 35 35 35 35 35 34 34 34 34 34 34 34 34 34 33 33 33 33 33 32 33 33 34 34 34 34 34 34 34 34 34 34 34 34 34 34
41 41 42 42 42 42 41 40 39 40 41 41 41 41 41 41 41 41 41 41 41 41 41 40 39 39 40 41 40 38 38 38 37 37 37 37 36 36 36 37 37 37 38 38 38 38 38 38 38 38 38 38 38 37 38 38 38 37 37 37 36 35 34 34 34 34 34 34 34 34 34 34 34 34 34 34 34 34 34 33 33 33 33 34 34 34 34 34 33 33 33 32 32 33 33 33 32 32 33 33 33 34 34
40 41 41 41 41 41 41 40 40 41 41 41 41 41 41 41 40 40 40 41 41 41 41 40 40 40 41 40 39 38 37 37 37 37 37 37 36 36 36 36 37 37 37 37 37 38 38 38 38 38 38 38 37 37 37 37 37 37 37 36 35 35 35 34 34 34 34 34 34 34 34 34 34 34 34 34 34 34 34 34 34 33 34 33 33 34 34 34 34 32 32 32 32 32 32 32 32 32 32 32 32 32 33
40 40 41 41 40 40 40 40 41 41 40 39 39 40 40 40 40 40 40 41 41 41 41 40 40 41 40 40 39 38 38 38 38 37 37 36 36 36 36 36 36 36 36 37 37 37 38 38 38 38 38 37 37 37 37 37 37 36 36 36 36 36 35 35 35 35 34 34 34 34 34 34 34 34 34 34 34 34 34 34 34 34 34 33 32 32 33 33 32 32 31 31 31 31 32 31 31 31 31 31 31 31 31
40 40 40 40 40 40 40 40 40 39 38 38 38 38 39 39 40 40 40 40 40 40 40 40 40 40 40 40 39 38 38 38 38 37 37 36 36 36 36 36 36 36 36 36 37 37 37 37 37 37 37 37 37 37 37 37 36 36 36 36 36 36 35 35 35 35 35 34 34 34 34 34 34 33 33 33 33 33 34 34 34 34 34 34 34 33 32 31 30 30 30 30 30 31 30 30 29 30 29 29 29 29 29
40 40 39 39 40 40 39 39 38 38 38 37 37 38 38 39 39 39 39 39 39 39 39 39 40 40 40 40 40 39 38 38 38 37 37 36 36 35 35 36 36 36 36 37 37 36 36 36 37 37 36 36 36 36 37 36 36 36 36 36 36 35 35 35 35 35 35 35 34 35 34 34 33 33 33 33 33 33 33 33 33 33 34 34 34 32 31 30 30 29 29 29 29 29 29 29 28 28 28 28 28 27 28
39 39 39 39 39 39 39 38 38 37 37 37 37 37 38 38 38 38 38 39 39 39 39 39 39 39 40 40 40 39 38 38 37 37 37 36 36 36 36 36 36 37 37 37 36 35 35 36 36 35 35 35 35 36 36 36 36 36 36 35 35 35 35 35 35 35 35 34 34 35 34 34 33 32 32 33 33 33 34 32 31 30 32 32 32 31 31 30 30 29 29 29 29 29 30 30 30 30 29 29 29 29 29
38 39 39 39 39 39 38 38 37 36 36 36 37 37 37 38 38 38 38 38 38 38 38 38 38 38 39 39 39 38 38 37 37 37 37 36 36 36 36 36 36 36 36 36 35 35 34 34 34 34 35 35 35 35 35 35 35 35 35 35 35 35 35 35 35 35 35 34 33 33 33 34 33 32 32 33 34 34 33 32 31 30 32 33 32 31 30 30 30 29 29 29 30 30 31 31 31 31 31 31 31 31 31
38 38 38 38 38 38 38 37 36 35 35 36 36 36 36 36 36 37 37 37 37 37 37 38 38 38 39 39 39 38 38 37 37 36 36 36 36 36 36 36 36 36 36 35 34 34 34 34 34 35 35 35 35 34 34 34 34 34 34 35 35 35 36 35 34 34 34 33 32 31 32 32 32 32 33 33 33 33 32 31 30 29 31 32 31 30 30 29 29 29 29 30 30 31 31 31 31 31 32 32 32 32 32
36 37 38 38 38 37 36 36 35 34 34 35 35 35 35 35 35 35 35 35 35 36 36 37 38 38 38 38 38 38 37 37 36 36 36 36 36 36 36 36 35 35 34 34 34 34 34 34 34 34 34 34 33 33 33 34 34 34 34 35 36 36 35 34 33 33 32 32 31 31 31 31 30 30 32 32 32 33 31 30 30 30 32 32 30 29 29 29 29 29 29 30 30 30 31 31 31 31 31 31 31 31 31
35 36 35 35 35 36 35 35 34 34 34 34 34 34 34 34 34 34 34 34 35 35 36 37 38 38 38 38 37 37 37 36 36 36 36 36 36 36 36 35 35 34 34 34 34 34 34 34 34 34 33 32 32 32 33 34 34 34 35 35 35 35 34 32 32 32 32 32 31 29 29 29 29 30 30 31 32 31 31 29 29 31 32 31 30 29 29 29 29 29 29 29 30 30 30 30 30 31 31 31 31 31 31
35 35 34 34 34 34 34 34 34 34 33 33 33 33 34 34 34 33 34 35 35 36 37 37 38 37 37 37 36 36 36 36 36 36 35 35 35 36 36 36 35 35 35 35 34 34 34 34 33 33 33 32 32 33 34 34 35 35 34 34 33 33 32 32 31 31 31 30 29 28 28 28 29 30 30 30 30 29 29 29 29 32 32 31 29 29 29 29 29 29 29 29 29 29 30 31 31 31 31 31 31 31 32
34 33 33 33 33 33 32 32 32 33 33 33 33 33 33 34 34 34 34 35 36 37 37 37 36 36 36 36 36 36 36 36 36 35 35 35 35 35 35 35 35 35 35 35 34 34 34 33 33 33 33 33 33 34 34 35 35 35 34 33 34 33 32 31 31 30 31 30 29 28 28 29 29 31 31 30 29 29 27 27 28 31 32 31 30 29 29 29 29 29 29 29 29 29 30 30 31 31 32 32 32 32 33
32 32 32 32 32 31 31 32 32 32 32 32 33 33 33 33 34 34 34 35 35 35 36 36 35 35 36 35 35 35 35 35 35 35 35 34 34 35 35 35 35 35 35 34 34 34 34 34 33 34 34 34 34 34 35 35 34 34 33 33 33 33 32 31 30 30 29 29 29 28 29 30 31 33 32 30 29 28 27 26 27 30 32 32 30 29 29 29 29 29 29 29 29 29 30 30 30 30 31 31 31 32 33